Location: Newark
(42.7133°N, 87.7910°W)
Time: 16:12:10
(UTC+00:00)

A-11 Canister half - Pass Details

Date: 02 October 2019
Orbit: 1527 x 1682 km, 47.3° (Epoch: 22 October)

Event Time Altitude Azimuth Distance (km) Brightness Sun altitude
Exits shadow 08:10:26 76° 17° (NNE) 1,588 8.9 -38.6°
Drops below altitude 10° 08:19:27 10° 70° (ENE) 3,775 11.7 -37.3°
Sets 08:22:35 0° 72° (ENE) 4,781 12.5 -36.8°
